Weather History for China Lake, CA

Change the Weather History Date:

Wednesday, January 23, 2013

  Actual Average Record
Temperature  
Mean Temperature 44 °F -  
Max Temperature 57 °F 58 °F 68 °F (1999)
Min Temperature 30 °F 34 °F 21 °F (2007)
Degree Days  
Heating Degree Days 22    
Moisture  
Dew Point 8 °F    
Average Humidity 23    
Maximum Humidity 65    
Minimum Humidity 14    
Precipitation  
Precipitation 0.00 in - - ()
Sea Level Pressure  
Sea Level Pressure 30.17 in    
Wind  
Wind Speed 1 mph (SSW)    
Max Wind Speed 7 mph    
Max Gust Speed -    
Visibility 10 miles    
Events Rain    
Averages and records for this station are not official NWS values.
T = Trace of Precipitation, MM = Missing Value Source: NWS Daily Summary

Daily Weather History Graph

Daily Weather History Graph

Search for Another Location

Airport:

Trip Planner

Search our weather history database for the weather conditions in past years. The results will help you decide how hot, cold, wet, or windy it might be!

Date:

Astronomy

Jan. 23, 2013 Rise Set
Actual Time 6:56 AM PST 5:09 PM PST
Civil Twilight 6:29 AM PST 5:36 PM PST
Nautical Twilight 5:58 AM PST 6:07 PM PST
Astronomical Twilight 5:27 AM PST 6:38 PM PST
Moon 2:25 PM PST (1/23) 4:10 AM PST (1/23)
Length of Visible Light 11h 07m
Length of Day
10h 12m
Waxing Gibbous, 90% of the Moon is Illuminated
Jan 23
Waxing Gibbous
Jan 26
Full
Feb 3
Last Quarter
Feb 9
New
Feb 17
First Quarter

Hourly Weather History & Observations

Time (PST) Temp. Windchill Dew Point Humidity Pressure Visibility Wind Dir Wind Speed Gust Speed Precip Events Conditions
12:56 AM 35.1 °F - 1.9 °F 25% 30.18 in 10.0 mi Calm Calm - N/A   Clear
1:56 AM 32.0 °F - -0.0 °F 26% 30.18 in 10.0 mi Calm Calm - N/A   Clear
2:56 AM 35.1 °F - 3.0 °F 26% 30.18 in 10.0 mi Calm Calm - N/A   Clear
3:56 AM 36.0 °F 31.1 °F 3.9 °F 26% 30.17 in 10.0 mi SSW 5.8 mph - N/A   Clear
4:56 AM 30.9 °F - -0.0 °F 27% 30.18 in 10.0 mi Calm Calm - N/A   Overcast
5:56 AM 33.1 °F 30.0 °F 3.0 °F 28% 30.19 in 10.0 mi SSW 3.5 mph - N/A   Overcast
6:56 AM 34.0 °F - 3.0 °F 27% 30.21 in 10.0 mi Calm Calm - N/A   Overcast
8:56 AM 37.0 °F - 3.0 °F 24% 30.23 in 10.0 mi Calm Calm - N/A   Overcast
9:56 AM 45.0 °F 42.6 °F 5.0 °F 19% 30.23 in 10.0 mi SSE 4.6 mph - N/A   Overcast
10:56 AM 53.1 °F - 7.0 °F 16% 30.22 in 10.0 mi Calm Calm - N/A   Overcast
11:56 AM 54.0 °F - 6.1 °F 15% 30.17 in 10.0 mi Calm Calm - N/A   Overcast
12:56 PM 55.0 °F - 6.1 °F 14% 30.15 in 10.0 mi Calm Calm - N/A   Overcast
1:56 PM 55.9 °F - 7.0 °F 14% 30.14 in 10.0 mi Calm Calm - N/A   Overcast
2:56 PM 57.0 °F - 7.0 °F 14% 30.12 in 10.0 mi Calm Calm - N/A   Overcast
3:56 PM 55.9 °F - 8.1 °F 15% 30.12 in 10.0 mi Calm Calm - N/A   Overcast
4:56 PM 54.0 °F - 10.9 °F 18% 30.12 in 10.0 mi Calm Calm - N/A   Overcast
5:56 PM 51.1 °F - 7.0 °F 17% 30.13 in 10.0 mi Calm Calm - N/A   Overcast
6:56 PM 51.1 °F - 8.1 °F 18% 30.14 in 10.0 mi South 4.6 mph - N/A   Mostly Cloudy
7:56 PM 50.0 °F - 8.1 °F 18% 30.15 in 10.0 mi Calm Calm - N/A   Overcast
8:56 PM 48.9 °F - 8.1 °F 19% 30.16 in 10.0 mi Calm Calm - N/A   Overcast
9:56 PM 50.0 °F - 9.0 °F 19% 30.17 in 10.0 mi Calm Calm - N/A   Overcast
10:56 PM 48.0 °F - 27.0 °F 44% 30.18 in 10.0 mi Calm Calm - 0.00 in Rain Light Rain
11:56 PM 45.0 °F 41.2 °F 34.0 °F 65% 30.17 in 10.0 mi NW 6.9 mph - 0.00 in Rain Light Rain